Regional Weather Roundup
Issued by NWS Pendleton, OR

Home | Current Version | Previous Version | Text Only | Print | Product List | Glossary On
Versions: 1 2 3 4 5 6 7 8 9 10 11 12 13 14 15 16 17 18 19 20 21 22 23 24 25 26 27 28 29 30 31 32 33 34 35 36 37 38 39 40 41 42 43 44 45 46 47 48 49 50
681
ASUS46 KPDT 240825
RWRPDT
PENDLETON REGIONAL WEATHER ROUNDUP
NATIONAL WEATHER SERVICE PENDLETON OREGON
100 AM PDT MON APR 24 2017

NOTE: FAIR INDICATES FEW OR NO CLOUDS BELOW 12,000 FEET WITH NO
SIGNIFICANT WEATHER AND/OR OBSTRUCTIONS TO VISIBILITY.

# INDICATES UNOFFICIAL STATION AND DATA

WAZ520-240910-
EAST SLOPES OF WASHINGTON CASCADES

CITY            SKY/WX      TMP DP  RH  WIND    PRES   REMARKS
#CLE ELUM HS    N/A         39  37  92  CALM    29.73F
#CLE ELUM LAKE  N/A         38  34  85  CALM    29.74F
#GLENWOOD       N/A         40  38  92  S1      29.78F
#MANASTASH CYN  N/A         46  46  100 CALM    29.73F
#NELSON 3SW     N/A         34  33  96  CALM    29.97F
#NILE           N/A         39  36  89  CALM    29.02F
#TEANAWAY 4NE   N/A         40  39  96  CALM    N/A
#TROUT LAKE 1NE N/A         39  37  92  CALM    29.79F
#TROUT LAKE 1E  N/A         37  35  92  CALM    29.80F
$$

WAZ521-240910-
SIMCOE HIGHLANDS

CITY            SKY/WX      TMP DP  RH  WIND    PRES   REMARKS
#BICKLETON HS   N/A         40  37  89  SW17    29.77F WCI 31
#CENTERVILLE 1SWN/A         43  37  79  W3      29.75F
#GOLDENDALE 1NE N/A         44  33  65  S1      N/A
#GOLDENDALE 4W  N/A         43  24  47  CALM    29.83F
#GOODNOE HILLS  N/A         45  40  82  W3      N/A
#LYLE 6NE       N/A         42  40  93  CALM    29.76F
#PITT 4SE       N/A         39  37  92  W5      29.81F
$$

WAZ026-240910-
KITTITAS VALLEY

CITY            SKY/WX      TMP DP  RH  WIND    PRES   REMARKS
ELLENSBURG AP   CLOUDY      45  37  73  NW8     29.74F
#ELLENSBURG CWU N/A         43  37  79  N7      29.68F
#ELLENSBURG 3NE N/A         42  37  82  CALM    27.83F
#ELLENSBURG 1E  N/A         43  N/A N/A CALM    N/A
#ELLENSBURG 13S N/A         48  37  65  CALM    N/A
#KITTITAS 4N    N/A         42  35  76  W5      29.76F
#KITTITAS 3S    N/A         43  38  82  W1      29.74F
#THORP 6N       N/A         39  37  92  W3      29.77F
$$

WAZ027-240910-
YAKIMA VALLEY

CITY            SKY/WX      TMP DP  RH  WIND    PRES   REMARKS
SUNNYSIDE AP    LGT DRIZZLE 47  41  79  E5      29.77F
YAKIMA AIRPORT  CLOUDY      50  39  66  CALM    29.76S
YAKIMA-VAGABOND CLOUDY      46  37  71  E8      29.73F
#DONALD 2NE     N/A         47  23  38  CALM    28.61F
#GRANDVIEW      N/A         50  38  63  CALM    29.79F
#MABTON         N/A         51  42  71  CALM    29.77F
#MOXEE 2E       N/A         46   0  14  E3      29.72F
#NACHES 2SW     N/A         45  36  70  CALM    29.76S
#TERRACE HTS    N/A         47  39  74  CALM    29.72S
#TOPPENISH      N/A         49  39  68  CALM    29.68F
#WEST VALLEY    N/A         48  39  71  CALM    29.73F
#W YAKIMA       N/A         47  38  71  CALM    29.75S
#WHITE SWAN 5E  N/A         49  38  66  CALM    29.75F
#WILEY CITY 3W  N/A         44  35  70  CALM    29.71F
$$

WAZ028-240910-
LOWER COLUMBIA BASIN...WASHINGTON

CITY            SKY/WX      TMP DP  RH  WIND    PRES   REMARKS
HANFORD         CLOUDY      50  37  61  W10     29.75F
PASCO           CLOUDY      52  37  56  SW14    29.79S
PROSSER AWOS    N/A         50  43  77  NE6     29.81F
RICHLAND AWOS   CLOUDY      52  40  63  S9      29.78F
#BENTON CITY    N/A         48  40  74  CALM    29.70S
#CONNELL 5N     N/A         46  40  79  SW2     29.74F
#CONNELL 5NW    N/A         47  40  76  SW5     29.70S
#ELTOPIA 6NW    N/A         49  39  68  SW1     28.74S
#KAHLOTUS       N/A         47  40  76  W16     29.75F WCI 41
#KENNEWICK 3S   N/A         47  41  79  S3      29.79S
#PATERSON       N/A         49  42  77  CALM    29.78F
#SAGEMOOR 2W    N/A         48  39  71  W1      29.64S
#TOUCHET 2S     N/A         50  43  77  SW6     29.77F
#WEST PASCO     N/A         52  39  61  S5      29.77R
$$

WAZ029-240910-
FOOTHILLS OF THE BLUES...WASHINGTON

CITY            SKY/WX      TMP DP  RH  WIND    PRES   REMARKS
WALLA WALLA AP  LGT RAIN    50  45  83  S8      29.80S
#CLYDE 6NW      N/A         46  40  79  S7      29.76F
#DAYTON SCHOOL  N/A         47  34  60  SE1     29.82S
#LOWDEN 2SE     N/A         51  45  80  SW1     29.77F
#PLEASANT VIEW 1N/A         44  40  86  S8      29.79F
#PRESCOTT       N/A         49  45  86  CALM    29.77S
#WHITMAN COLLEGEN/A         50  44  80  S3      29.83F
#WAITSBURG 5S   N/A         45  43  93  SE5     29.88F
#WAITSBURG 8N   N/A          0  N/A N/A S9      29.78F
#WALLA WALLA 5E N/A         48  45  89  S2      N/A
#WHITMAN MISSIONN/A         51  45  80  CALM    29.81F
$$

WAZ030-240910-
BLUE MOUNTAINS...WASHINGTON

CITY            SKY/WX      TMP DP  RH  WIND    PRES   REMARKS
#DIXIE 5SE      N/A         41  38  89  SW3     29.70F
$$

ORZ009-041-WAZ024-240910-
COLUMBIA RIVER GORGE

CITY            SKY/WX      TMP DP  RH  WIND    PRES   REMARKS
HOOD RIVER AP   LGT DRIZZLE 45  43  93  CALM    29.81F
THE DALLES AP   CLOUDY      49  42  77  NW13    29.80F WCI 44
#ARLINGTON AIRPON/A         47  41  79  CALM    29.81F
#CELILO DOT     N/A         51  39  63  CALM    N/A
#LYLE           N/A         48  43  83  NW2     29.82F
#MOSIER 1S      N/A         44  34  68  CALM    29.79S
#MURDOCK        N/A         48  42  80  NW12    29.76F WCI 43
#RUFUS DOT      N/A         51  41  68  W6      N/A
#SMITHVILLE     N/A         48  43  83  W12     29.75F WCI 43

$$

ORZ510-240910-
NORTH CENTRAL OREGON

CITY            SKY/WX      TMP DP  RH  WIND    PRES   REMARKS
#ANTELOPE       N/A         41  37  86  CALM    29.64F
#CHENOWITH 1W   N/A         40  39  96  NW17    N/A    WCI 31
#COW CYN RST AREN/A         41  37  86  SW5     N/A
#DUFUR          N/A         43  40  89  NE1     29.75F
#DUFUR 9E       N/A         39  38  96  CALM    29.84F
#GRASS VALLEY 1SN/A         41  38  89  SW1     29.93F
#KENT DOT       N/A         41  35  79  N1      N/A
#MAUPIN SCHOOL  N/A         47  40  76  CALM    29.83F
#SHANIKO 4NW    N/A         39  35  85  SW2     29.76F
#TYGH VALLEY 2NEN/A         46  39  76  CALM    29.77F
#WAPANITIA AIRPON/A         43  37  79  CALM    29.79F
#WASCO 5NE      N/A         44  40  86  CALM    29.79F
$$

ORZ511-240910-
CENTRAL OREGON

CITY            SKY/WX      TMP DP  RH  WIND    PRES   REMARKS
BEND AIRPORT    CLOUDY      41  34  76  S9      29.76F
MADRAS AIRPORT  CLOUDY      43  34  70  S6      29.79F
PRINEVILLE AP   CLOUDY      43  34  70  S14     29.76F WCI 36
REDMOND AIRPORT CLOUDY      44  32  62  SW5     29.76F
#ASHWOOD SCHOOL N/A         42  38  86  CALM    29.77F
#BEND 1SW       N/A         39  35  85  SW3     N/A
#BEND-AWBREY    N/A         40  35  82  N6      29.75F
#BEND-KIM LN    N/A         39  35  85  CALM    29.71F
#CULVER         N/A         43  34  70  SW1     29.70F
#CULVER 8W      N/A         43  34  70  SW1     29.80F
#LAKE BILLY CHINN/A         44  N/A N/A W6      29.87F
#POWELL BUTTE   N/A         42  34  73  S9      29.73F
#PRINEVILLE     N/A         44  34  68  S8      29.85F
#PRINEVILLE 3N  N/A         44  38  79  S2      29.75F
#WARM SPRINGS   N/A         47  38  71  CALM    29.75F

$$


ORZ509-240910-
EAST SLOPES OF OREGON CASCADES

CITY            SKY/WX      TMP DP  RH  WIND    PRES   REMARKS
SISTERS AWOS    N/A         41  36  82  CALM    29.76F
#BLUE BOX PASS  N/A         32  N/A N/A SW5     N/A
#CAMP SHERMAN   N/A         39  33  79  CALM    29.83F
#LA PINE 4NW    N/A         38  30  73  CALM    29.82F
#LAVA BUTTE DOT N/A         36  31  82  S1      N/A
#SISTERS 3N     N/A         40  30  67  CALM    29.79F
#SUNRIVER       N/A         38  34  85  S1      29.77F
#TUMALO 3W      N/A         38  33  82  CALM    29.64F
#WANOGA BUTTE D N/A         29  29  100 W10     N/A

$$

ORZ044-240910-
LOWER COLUMBIA BASIN...OREGON

CITY            SKY/WX      TMP DP  RH  WIND    PRES   REMARKS
HERMISTON       LGT RAIN    49  44  83  CALM    29.80F
#BOARDMAN SCHOOLN/A         51  41  68  S1      29.80S
#BOARDMAN 8SW   N/A         48  42  80  CALM    29.78F
#ECHO 8SW       N/A         48  42  80  CALM    29.81F
#I-84 EX 198 DOTN/A         48  44  86  NE6     N/A
#IONE SCHOOL    N/A         46  28  49  CALM    29.80F
$$

ORZ507-240910-
NORTHERN FOOTHILLS OF THE BLUES

CITY            SKY/WX      TMP DP  RH  WIND    PRES   REMARKS
PENDLETON AIRPT LGT RAIN    47  44  89  S5      29.80S
#ADAMS 3WNW     N/A         45  43  93  CALM    29.79F
#ATHENA         N/A         46  42  86  SW1     29.81F
#CAYUSE         N/A         45  42  89  CALM    29.78F
#HELIX SCHOOL   N/A         45  42  89  SW6     29.78F
#HELIX 3N       N/A         44  41  89  SW6     29.77F
#HOLDMAN 5SE    N/A         46  43  89  CALM    29.80F
#HOLDMAN 6E     N/A         45  43  93  S5      29.60F
#M-F FERNDALE   N/A         49  43  80  CALM    29.78F
#M-F GROVE ELEM N/A         48  41  77  CALM    29.78F
#M-FREEWATER 5SEN/A         47  43  86  CALM    29.80S
#PENDLETON DNTN N/A         49  41  74  CALM    29.80S
#PDT AQUATIC CTRN/A         47  41  79  CALM    29.82F
#PDT SUNRIDGE   N/A         46  44  93  CALM    29.82F
#PENDLETON 7NW  N/A         49  42  77  CALM    32.29S
#PILOT ROCK 1S  N/A         45  40  82  CALM    29.80F
#PILOT ROCK     N/A         45  41  86  CALM    29.81F
#TUTUILLA       N/A         46  43  89  CALM    29.80F
#UMAPINE 2E     N/A         50  45  83  CALM    29.77F
#WESTON SCHOOL  N/A         45  38  76  SW1     29.80F

$$

ORZ508-240910-
SOUTHERN FOOTHILLS OF THE BLUES

CITY            SKY/WX      TMP DP  RH  WIND    PRES   REMARKS
LEXINGTON       MOCLDY      46  45  96  CALM    29.82F
#AJAX           N/A         43  32  65  S6      29.94F
#CONDON SCHOOL  N/A          0  -78  1  CALM    29.75F
#CONDON 5W      N/A         38  34  85  CALM    29.75F
#HEPPNER EOC    N/A         44  40  86  CALM    29.72F
#LEXINGTON 2SE  N/A         46  42  86  CALM    29.75F
#MIKKALO        N/A         44  38  79  CALM    29.90F
#OLEX 4N        N/A         46  42  86  SW3     29.79F
#RUGGS 5NE      N/A         41  40  96  W2      29.94S
#RUGGS 2SW      N/A         41  38  89  W2      29.80F

$$

ORZ502-503-240910-
BLUE MOUNTAINS

CITY            SKY/WX      TMP DP  RH  WIND    PRES   REMARKS
MEACHAM         RAIN        38  34  85  CALM    29.77F FOG
#BATTLE MTN DOT N/A         38  37  96  CALM    N/A
#GREENHORN 9SW  N/A         38  38  100 CALM    25.99F
#HARDMAN 10S    N/A         37  35  92  CALM    29.87F
#LADD CREEK ODOTN/A         40  39  96  CALM    N/A
#LONG CREEK HS  N/A         40  40  100 CALM    N/A
#N POWDER DOT   N/A         41  39  93  N8      N/A
#PIKES PEAK     N/A         39  37  92  N8      27.99S
#TROY SCHOOL    N/A         46  44  93  CALM    29.65S
#UKIAH          N/A         41  39  93  CALM    29.68F
#WESTON 4E      N/A         40  38  92  CALM    29.76F
$$

ORZ505-240910-
JOHN DAY BASIN

CITY            SKY/WX      TMP DP  RH  WIND    PRES   REMARKS
JOHN DAY        LGT DRIZZLE 42  39  89  CALM    29.78F
#JOHN DAY KJDY  N/A         45  N/A N/A SW1     28.51F
#ANTELOPE 9ESE  N/A         47  39  74  CALM    N/A
#DAYVILLE SCHOOLN/A         45  39  79  CALM    29.75F
#MITCHELL       N/A         42  40  93  CALM    29.94F
#MITCHELL 8NW   N/A         39  34  82  E1      29.79F
#MONUMENT HS    N/A         47  40  76  CALM    29.75F
#MT. VERNON 5SE N/A         41  36  82  W1      29.72F
#SPRAY SCHOOL   N/A         47  N/A N/A CALM    N/A
$$

ORZ506-240910-
OCHOCO AND JOHN DAY HIGHLANDS

CITY            SKY/WX      TMP DP  RH  WIND    PRES   REMARKS
#HORSE RIDGE DO N/A         39  29  67  SE5     N/A
#PAULINA SCHOOL N/A         43  36  76  CALM    N/A
#PINE MTN OBS   N/A         29  28  96  S14G26  N/A    WCI 18
#PRAIRIE CITY   N/A         41  37  86  CALM    29.93F
#SENECA 9NW     N/A         37  33  85  CALM    29.72F
$$

ORZ049-240910-
GRANDE RONDE VALLEY

CITY            SKY/WX      TMP DP  RH  WIND    PRES   REMARKS
LA GRANDE       CLOUDY      43  39  86  CALM    29.77F
#COVE SCHOOL    N/A         42  40  93  CALM    29.81F
#COVE 6NW       N/A         41  38  89  CALM    29.78F
#ELGIN 3N       N/A         41  38  89  CALM    29.78F
#ELGIN 1E       N/A         42  37  82  CALM    N/A
#IMBLER SCHOOL  N/A         40  38  92  CALM    29.76F
#ISLAND CITY 4N N/A         46  45  96  SW1     29.81F
#UNION 1S       N/A         42  39  89  CALM    29.78F
$$

ORZ050-240910-
WALLOWA COUNTY

CITY            SKY/WX      TMP DP  RH  WIND    PRES   REMARKS
JOSEPH AIRPORT  CLOUDY      37  37  100 CALM    29.79F
#IMNAHA SCHOOL  N/A         44  41  89  CALM    29.82F
#IMNAHA 10S     N/A         40  38  92  CALM    29.80F
#JOSEPH 3N      N/A         36  31  82  CALM    29.84F
#JOSEPH 3W      N/A         35  35  100 CALM    29.64F
#LOSTINE        N/A         37  35  92  CALM    29.61F
#LOSTINE 3SE    N/A         37  36  96  CALM    29.82F
#MT HOWARD 8000 N/A         26  24  92  CALM    29.71F
#PROMISE 1S     N/A         38  36  92  CALM    29.88F
#WALLOWA SCHOOL N/A         37  36  96  CALM    29.79F



$$



USA.gov is the U.S. government's official web portal to all federal, state and local government web resources and services.